User: anonymous
Location: Haliburton Scout Reserve
(45.0900°N, 78.3200°W)
Time: 15:04:19
(UTC-04:00)
Language:

IDEFIX/ARIANE 42P - Orbit

View from above orbital plane
View from above orbital plane
View from above satellite
View from above satellite

Ground track
Ground track

The orbit data is extracted from the following two-line orbital elements,

1 27422U 02021B   14107.24599483  .00000210  00000-0  99294-4 0  4635
2 27422 098.3065 152.6111 0013320 068.4275 333.2915 14.28996790621435
Epoch (UTC): 17 April 2014 05:54:13
Eccentricity: 0.0013320
inclination: 98.3065°
perigee height: 785 km
apogee height: 804 km
right ascension of ascending node: 152.6111°
argument of perigee: 68.4275°
revolutions per day: 14.28996790
mean anomaly at epoch: 333.2915°
orbit number at epoch: 62143

The dashed part of the orbit path shows where the satellite is in the earth's shadow,  

DLR